ELY546 LGAV-LLBG

Flight info

Callsign ELY546
Flight time 1h 30m
Altitude 37000
Route N0459F370 KEA UL52 LINRO DCT VANZA DCT PIKOG L609 ZUKKO
Aircraft B738/M-SDE2E3FGHIRWXY/LB1

Departure

Time 2026-05-05 18:23
Airport Athens Eleftherios Venizelos International Airport (LGAV)

Arrival

Time 2026-05-05 19:53
Airport Ben Gurion International Airport (LLBG)
Time Latitude Longitude Altitude Speed Heading
2026-05-05 17:42 37.93409 23.94657 316 ft 0 kts 307°
2026-05-05 18:12 37.93402 23.94669 316 ft 3 kts 301°
2026-05-05 18:12 37.93393 23.94692 316 ft 3 kts 289°
2026-05-05 18:12 37.93388 23.94716 316 ft 3 kts 275°
2026-05-05 18:13 37.93387 23.94742 316 ft 3 kts 259°
2026-05-05 18:13 37.93393 23.94765 316 ft 3 kts 237°
2026-05-05 18:13 37.93402 23.94779 316 ft 1 kts 217°
2026-05-05 18:13 37.93403 23.94780 316 ft 0 kts 217°
2026-05-05 18:17 37.93402 23.94779 316 ft 2 kts 217°
2026-05-05 18:17 37.93380 23.94758 316 ft 0 kts 217°
2026-05-05 18:18 37.93368 23.94747 316 ft 6 kts 208°
2026-05-05 18:18 37.93303 23.94783 316 ft 14 kts 168°
2026-05-05 18:18 37.93224 23.94731 316 ft 13 kts 217°
2026-05-05 18:18 37.93154 23.94664 316 ft 12 kts 217°
2026-05-05 18:19 37.93089 23.94639 316 ft 9 kts 158°
2026-05-05 18:19 37.93037 23.94676 316 ft 9 kts 172°
2026-05-05 18:19 37.92971 23.94636 316 ft 12 kts 217°
2026-05-05 18:19 37.92894 23.94562 316 ft 15 kts 217°
2026-05-05 18:20 37.92803 23.94477 316 ft 17 kts 216°
2026-05-05 18:20 37.92701 23.94380 316 ft 19 kts 217°
2026-05-05 18:20 37.92596 23.94279 316 ft 18 kts 217°
2026-05-05 18:20 37.92500 23.94189 316 ft 14 kts 218°
2026-05-05 18:21 37.92424 23.94179 316 ft 11 kts 134°
2026-05-05 18:21 37.92411 23.94267 316 ft 10 kts 88°
2026-05-05 18:21 37.92398 23.94341 316 ft 6 kts 102°
2026-05-05 18:21 37.92419 23.94389 316 ft 9 kts 38°
2026-05-05 18:22 37.92528 23.94494 316 ft 40 kts 36°
2026-05-05 18:22 37.92913 23.94858 316 ft 98 kts 37°
2026-05-05 18:22 37.93601 23.95513 316 ft 148 kts 36°
2026-05-05 18:22 37.94517 23.96377 582 ft 169 kts 36°
2026-05-05 18:23 37.95476 23.97260 1252 ft 171 kts 34°
2026-05-05 18:23 37.96434 23.98161 1906 ft 172 kts 36°
2026-05-05 18:23 37.97386 23.99093 2551 ft 174 kts 36°
2026-05-05 18:23 37.98350 24.00022 3186 ft 175 kts 34°
2026-05-05 18:24 37.99347 24.00976 3676 ft 187 kts 35°
2026-05-05 18:24 38.00451 24.02036 3967 ft 210 kts 36°
2026-05-05 18:24 38.01680 24.03223 4219 ft 234 kts 36°
2026-05-05 18:24 38.02985 24.04603 4590 ft 254 kts 46°
2026-05-05 18:25 38.03876 24.06593 5101 ft 268 kts 71°
2026-05-05 18:25 38.04060 24.08153 5562 ft 273 kts 88°
2026-05-05 18:25 38.03376 24.11258 6538 ft 282 kts 118°
2026-05-05 18:25 38.02184 24.13255 7248 ft 288 kts 132°
2026-05-05 18:26 38.00711 24.15006 7962 ft 292 kts 135°
2026-05-05 18:26 37.99201 24.16753 8654 ft 297 kts 136°
2026-05-05 18:26 37.97657 24.18516 9345 ft 301 kts 136°
2026-05-05 18:26 37.96092 24.20302 10032 ft 305 kts 136°
2026-05-05 18:27 37.94505 24.22113 10667 ft 311 kts 135°
2026-05-05 18:27 37.92859 24.23990 11031 ft 327 kts 135°
2026-05-05 18:27 37.91144 24.25946 11287 ft 346 kts 135°
2026-05-05 18:27 37.89312 24.28033 11597 ft 361 kts 135°
2026-05-05 18:28 37.85495 24.32378 12748 ft 374 kts 135°
2026-05-05 18:28 37.83549 24.34593 13394 ft 379 kts 136°
2026-05-05 18:28 37.81572 24.36841 14034 ft 384 kts 136°
2026-05-05 18:29 37.79576 24.39110 14677 ft 389 kts 136°
2026-05-05 18:29 37.77552 24.41414 15292 ft 394 kts 136°
2026-05-05 18:29 37.75516 24.43766 15919 ft 399 kts 136°
2026-05-05 18:29 37.73445 24.46137 16526 ft 404 kts 136°
2026-05-05 18:30 37.71351 24.48527 17118 ft 408 kts 136°
2026-05-05 18:30 37.69231 24.50940 17697 ft 413 kts 136°
2026-05-05 18:30 37.67082 24.53385 18264 ft 418 kts 137°
2026-05-05 18:30 37.64912 24.55848 18818 ft 422 kts 137°
2026-05-05 18:31 37.62710 24.58343 19351 ft 427 kts 137°
2026-05-05 18:31 37.60534 24.60812 19867 ft 431 kts 137°
2026-05-05 18:31 37.58351 24.63509 20400 ft 435 kts 131°
2026-05-05 18:31 37.56420 24.66460 20891 ft 438 kts 124°
2026-05-05 18:32 37.54722 24.69666 21381 ft 441 kts 120°
2026-05-05 18:32 37.53113 24.72923 21832 ft 445 kts 118°
2026-05-05 18:32 37.51458 24.76318 22314 ft 449 kts 118°
2026-05-05 18:32 37.49825 24.79663 22752 ft 453 kts 118°
2026-05-05 18:33 37.48164 24.83058 23199 ft 457 kts 118°
2026-05-05 18:33 37.46488 24.86478 23629 ft 461 kts 119°
2026-05-05 18:33 37.44799 24.89919 24062 ft 464 kts 119°
2026-05-05 18:33 37.43092 24.93391 24480 ft 468 kts 118°
2026-05-05 18:34 37.41373 24.96882 24894 ft 471 kts 118°
2026-05-05 18:34 37.39664 25.00349 25298 ft 474 kts 118°
2026-05-05 18:34 37.37919 25.03887 25686 ft 477 kts 118°
2026-05-05 18:34 37.36163 25.07443 26046 ft 481 kts 118°
2026-05-05 18:35 37.34411 25.11037 26423 ft 483 kts 118°
2026-05-05 18:35 37.32681 25.14604 26789 ft 486 kts 118°
2026-05-05 18:35 37.31486 25.17056 27026 ft 488 kts 118°
2026-05-05 18:35 37.29123 25.21881 27498 ft 491 kts 118°
2026-05-05 18:36 37.27322 25.25545 27822 ft 494 kts 118°
2026-05-05 18:36 37.25506 25.29228 28138 ft 497 kts 118°
2026-05-05 18:36 37.23679 25.32925 28470 ft 500 kts 118°
2026-05-05 18:36 37.22464 25.35382 28681 ft 501 kts 118°
2026-05-05 18:37 37.19994 25.40369 29079 ft 505 kts 118°
2026-05-05 18:37 37.18134 25.44118 29361 ft 507 kts 118°
2026-05-05 18:37 37.16897 25.46608 29551 ft 509 kts 118°
2026-05-05 18:37 37.15021 25.50382 29834 ft 511 kts 118°
2026-05-05 18:38 37.13133 25.54174 30094 ft 514 kts 118°
2026-05-05 18:38 37.11239 25.57976 30369 ft 516 kts 118°
2026-05-05 18:38 37.09332 25.61796 30659 ft 517 kts 118°
2026-05-05 18:38 37.07431 25.65602 31094 ft 514 kts 118°
2026-05-05 18:39 37.05536 25.69393 31451 ft 514 kts 118°
2026-05-05 18:39 37.03642 25.73176 31820 ft 513 kts 118°
2026-05-05 18:39 37.01748 25.76955 32147 ft 512 kts 118°
2026-05-05 18:39 36.99852 25.80734 32482 ft 512 kts 119°
2026-05-05 18:40 36.97958 25.84505 32807 ft 512 kts 119°
2026-05-05 18:40 36.96064 25.88271 33123 ft 511 kts 119°
2026-05-05 18:40 36.94171 25.92031 33443 ft 511 kts 119°
2026-05-05 18:40 36.92281 25.95782 33784 ft 509 kts 119°
2026-05-05 18:41 36.90390 25.99529 34075 ft 509 kts 120°
2026-05-05 18:41 36.88499 26.03272 34357 ft 509 kts 120°
2026-05-05 18:41 36.86609 26.07009 34676 ft 508 kts 120°
2026-05-05 18:41 36.84721 26.10738 34971 ft 508 kts 120°
2026-05-05 18:42 36.82838 26.14453 35259 ft 507 kts 120°
2026-05-05 18:42 36.80949 26.18176 35563 ft 506 kts 120°
2026-05-05 18:42 36.79062 26.21888 35818 ft 506 kts 120°
2026-05-05 18:42 36.77181 26.25587 36126 ft 504 kts 120°
2026-05-05 18:43 36.75303 26.29276 36401 ft 504 kts 120°
2026-05-05 18:43 36.73426 26.32959 36679 ft 503 kts 120°
2026-05-05 18:43 36.71552 26.36633 36924 ft 502 kts 120°
2026-05-05 18:43 36.69674 26.40308 37051 ft 504 kts 120°
2026-05-05 18:44 36.65941 26.47605 37060 ft 500 kts 120°
2026-05-05 18:44 36.62220 26.54862 37058 ft 495 kts 120°
2026-05-05 18:45 36.58511 26.62081 37058 ft 495 kts 120°
2026-05-05 18:45 36.54793 26.69301 37057 ft 496 kts 120°
2026-05-05 18:46 36.51066 26.76523 37056 ft 496 kts 120°
2026-05-05 18:46 36.47335 26.83737 37056 ft 496 kts 121°
2026-05-05 18:47 36.43599 26.90945 37056 ft 496 kts 121°
2026-05-05 18:47 36.39859 26.98148 37053 ft 496 kts 121°
2026-05-05 18:48 36.36113 27.05344 37053 ft 496 kts 121°
2026-05-05 18:48 36.32360 27.12541 37048 ft 497 kts 121°
2026-05-05 18:49 36.28604 27.19728 37040 ft 497 kts 121°
2026-05-05 18:49 36.24843 27.26908 37035 ft 497 kts 121°
2026-05-05 18:50 36.21073 27.34090 37032 ft 497 kts 121°
2026-05-05 18:50 36.17326 27.41214 37028 ft 497 kts 121°
2026-05-05 18:51 36.13538 27.48402 37025 ft 498 kts 121°
2026-05-05 18:51 36.09747 27.55578 37023 ft 498 kts 121°
2026-05-05 18:52 36.05955 27.62744 37021 ft 498 kts 121°
2026-05-05 18:52 36.02156 27.69906 37019 ft 498 kts 121°
2026-05-05 18:53 35.98353 27.77061 37018 ft 498 kts 122°
2026-05-05 18:53 35.94543 27.84215 37017 ft 498 kts 122°
2026-05-05 18:54 35.90728 27.91363 37017 ft 498 kts 122°
2026-05-05 18:54 35.86936 27.98453 37017 ft 498 kts 122°
2026-05-05 18:55 35.83114 28.05585 37017 ft 498 kts 122°
2026-05-05 18:55 35.79288 28.12710 37015 ft 498 kts 122°
2026-05-05 18:56 35.75456 28.19831 37016 ft 499 kts 122°
2026-05-05 18:56 35.71619 28.26945 37016 ft 499 kts 122°
2026-05-05 18:57 35.67779 28.34053 37017 ft 499 kts 122°
2026-05-05 18:57 35.63934 28.41153 37018 ft 499 kts 122°
2026-05-05 18:58 35.60084 28.48250 37018 ft 499 kts 122°
2026-05-05 18:58 35.56230 28.55339 37019 ft 498 kts 122°
2026-05-05 18:59 35.52377 28.62410 37019 ft 498 kts 122°
2026-05-05 18:59 35.48521 28.69474 37020 ft 498 kts 123°
2026-05-05 19:00 35.44661 28.76532 37020 ft 498 kts 123°
2026-05-05 19:00 35.40794 28.83585 37014 ft 498 kts 123°
2026-05-05 19:01 35.36919 28.90642 37008 ft 499 kts 123°
2026-05-05 19:01 35.33071 28.97634 37008 ft 498 kts 123°
2026-05-05 19:02 35.29198 29.04657 37020 ft 497 kts 123°
2026-05-05 19:02 35.25321 29.11674 37024 ft 498 kts 123°
2026-05-05 19:03 35.21439 29.18684 37023 ft 498 kts 123°
2026-05-05 19:03 35.17550 29.25694 37023 ft 498 kts 123°
2026-05-05 19:04 35.13658 29.32696 37023 ft 498 kts 123°
2026-05-05 19:04 35.09766 29.39684 37023 ft 498 kts 124°
2026-05-05 19:05 35.05866 29.46671 37023 ft 498 kts 124°
2026-05-05 19:05 35.01964 29.53648 37024 ft 498 kts 124°
2026-05-05 19:06 34.98056 29.60622 37024 ft 498 kts 124°
2026-05-05 19:06 34.94144 29.67593 37024 ft 498 kts 124°
2026-05-05 19:07 34.90240 29.74559 37025 ft 498 kts 124°
2026-05-05 19:07 34.86335 29.81462 37025 ft 498 kts 124°
2026-05-05 19:08 34.82399 29.88397 37025 ft 498 kts 124°
2026-05-05 19:08 34.78458 29.95331 37025 ft 499 kts 124°
2026-05-05 19:09 34.74543 30.02299 37025 ft 499 kts 122°
2026-05-05 19:09 34.70923 30.09481 37025 ft 497 kts 121°
2026-05-05 19:10 34.67306 30.16631 37026 ft 497 kts 122°
2026-05-05 19:10 34.63660 30.23772 37033 ft 498 kts 122°
2026-05-05 19:11 34.59997 30.30917 37033 ft 498 kts 122°
2026-05-05 19:11 34.56348 30.38066 37042 ft 498 kts 121°
2026-05-05 19:12 34.52716 30.45218 37046 ft 498 kts 122°
2026-05-05 19:12 34.49062 30.52356 37045 ft 498 kts 122°
2026-05-05 19:13 34.45400 30.59478 37045 ft 498 kts 122°
2026-05-05 19:13 34.41729 30.66598 37045 ft 498 kts 122°
2026-05-05 19:14 34.38063 30.73691 37050 ft 497 kts 122°
2026-05-05 19:14 34.34390 30.80783 37060 ft 497 kts 122°
2026-05-05 19:15 34.30714 30.87866 37056 ft 497 kts 122°
2026-05-05 19:15 34.27037 30.94938 37056 ft 497 kts 122°
2026-05-05 19:16 34.23358 31.01999 37057 ft 497 kts 123°
2026-05-05 19:16 34.19673 31.09058 37056 ft 495 kts 123°
2026-05-05 19:17 34.16018 31.16046 37057 ft 489 kts 123°
2026-05-05 19:17 34.12384 31.22980 37058 ft 489 kts 123°
2026-05-05 19:18 34.08745 31.29910 37059 ft 489 kts 123°
2026-05-05 19:18 34.05102 31.36834 37058 ft 489 kts 123°
2026-05-05 19:19 34.01446 31.43771 37059 ft 490 kts 123°
2026-05-05 19:19 33.97790 31.50694 37059 ft 490 kts 124°
2026-05-05 19:20 33.94128 31.57613 37059 ft 490 kts 124°
2026-05-05 19:20 33.90465 31.64521 37059 ft 489 kts 124°
2026-05-05 19:21 33.86800 31.71421 37060 ft 489 kts 124°
2026-05-05 19:21 33.83156 31.78268 37060 ft 489 kts 124°
2026-05-05 19:22 33.79481 31.85160 37060 ft 489 kts 124°
2026-05-05 19:22 33.75803 31.92044 37061 ft 489 kts 124°
2026-05-05 19:23 33.72123 31.98920 37062 ft 489 kts 124°
2026-05-05 19:23 33.68440 32.05787 37062 ft 489 kts 124°
2026-05-05 19:24 33.64751 32.12655 37056 ft 490 kts 124°
2026-05-05 19:24 33.61675 32.18370 37045 ft 489 kts 125°
2026-05-05 19:25 33.57981 32.25222 37040 ft 489 kts 125°
2026-05-05 19:25 33.54257 32.32116 37044 ft 490 kts 125°
2026-05-05 19:26 33.50549 32.38968 37051 ft 490 kts 125°
2026-05-05 19:26 33.46860 32.45771 37039 ft 490 kts 125°
2026-05-05 19:27 33.43117 32.52662 37041 ft 491 kts 126°
2026-05-05 19:27 33.39418 32.59459 37041 ft 490 kts 126°
2026-05-05 19:28 33.35693 32.66292 37007 ft 491 kts 126°
2026-05-05 19:28 33.33820 32.69722 36681 ft 491 kts 126°
2026-05-05 19:28 33.31959 32.73126 36211 ft 489 kts 126°
2026-05-05 19:29 33.30097 32.76531 35585 ft 490 kts 126°
2026-05-05 19:29 33.28225 32.79949 34949 ft 491 kts 126°
2026-05-05 19:29 33.26351 32.83368 34305 ft 492 kts 126°
2026-05-05 19:29 33.24474 32.86791 33654 ft 493 kts 126°
2026-05-05 19:30 33.22589 32.90223 32990 ft 494 kts 126°
2026-05-05 19:30 33.20703 32.93656 32318 ft 495 kts 126°
2026-05-05 19:30 33.18813 32.97091 31642 ft 495 kts 126°
2026-05-05 19:30 33.16933 33.00507 31321 ft 487 kts 126°
2026-05-05 19:31 33.15086 33.03857 31070 ft 483 kts 126°
2026-05-05 19:31 33.13235 33.07213 30820 ft 487 kts 126°
2026-05-05 19:31 33.11363 33.10605 30570 ft 491 kts 126°
2026-05-05 19:31 33.09476 33.14018 30321 ft 494 kts 126°
2026-05-05 19:32 33.07587 33.17434 29859 ft 492 kts 127°
2026-05-05 19:32 33.05700 33.20842 29140 ft 493 kts 127°
2026-05-05 19:32 33.03811 33.24251 28409 ft 494 kts 127°
2026-05-05 19:32 33.01913 33.27672 27736 ft 493 kts 127°
2026-05-05 19:33 33.00031 33.31070 27172 ft 490 kts 126°
2026-05-05 19:33 32.98198 33.34411 26619 ft 486 kts 126°
2026-05-05 19:33 32.96317 33.37801 26055 ft 482 kts 127°
2026-05-05 19:33 32.94494 33.41073 25510 ft 479 kts 127°
2026-05-05 19:34 32.92659 33.44357 24963 ft 475 kts 127°
2026-05-05 19:34 32.90861 33.47572 24494 ft 454 kts 127°
2026-05-05 19:34 32.89144 33.50640 24178 ft 441 kts 127°
2026-05-05 19:35 32.85820 33.56575 23685 ft 425 kts 127°
2026-05-05 19:35 32.84191 33.59484 23281 ft 422 kts 127°
2026-05-05 19:35 32.82569 33.62377 22855 ft 419 kts 127°
2026-05-05 19:35 32.80993 33.65278 22470 ft 416 kts 124°
2026-05-05 19:36 32.79490 33.68209 22085 ft 413 kts 124°
2026-05-05 19:36 32.78001 33.71112 21688 ft 410 kts 124°
2026-05-05 19:36 32.76518 33.73987 21310 ft 406 kts 124°
2026-05-05 19:36 32.75040 33.76838 20929 ft 403 kts 124°
2026-05-05 19:37 32.73576 33.79655 20545 ft 400 kts 124°
2026-05-05 19:37 32.72118 33.82455 20156 ft 397 kts 124°
2026-05-05 19:37 32.70674 33.85225 19793 ft 393 kts 124°
2026-05-05 19:37 32.69238 33.87975 19418 ft 390 kts 124°
2026-05-05 19:38 32.67814 33.90701 19053 ft 387 kts 124°
2026-05-05 19:38 32.66420 33.93410 18677 ft 384 kts 122°
2026-05-05 19:38 32.65097 33.96148 18315 ft 381 kts 121°
2026-05-05 19:38 32.63815 33.98887 17960 ft 378 kts 121°
2026-05-05 19:39 32.62542 34.01601 17575 ft 375 kts 121°
2026-05-05 19:39 32.61275 34.04297 17172 ft 373 kts 121°
2026-05-05 19:39 32.60016 34.06973 16800 ft 371 kts 120°
2026-05-05 19:39 32.58762 34.09633 16432 ft 368 kts 120°
2026-05-05 19:40 32.57516 34.12277 16066 ft 365 kts 120°
2026-05-05 19:40 32.56279 34.14897 15686 ft 363 kts 120°
2026-05-05 19:40 32.55050 34.17500 15318 ft 361 kts 120°
2026-05-05 19:40 32.53827 34.20087 14954 ft 358 kts 120°
2026-05-05 19:41 32.52613 34.22654 14585 ft 356 kts 120°
2026-05-05 19:41 32.51424 34.25166 13982 ft 346 kts 120°
2026-05-05 19:41 32.50248 34.27651 13085 ft 346 kts 120°
2026-05-05 19:41 32.49089 34.30133 12338 ft 341 kts 119°
2026-05-05 19:42 32.47966 34.32536 11934 ft 326 kts 119°
2026-05-05 19:42 32.46884 34.34844 11588 ft 319 kts 119°
2026-05-05 19:42 32.45789 34.37171 11245 ft 327 kts 119°
2026-05-05 19:42 32.44672 34.39538 10893 ft 332 kts 119°
2026-05-05 19:43 32.43546 34.41919 10533 ft 327 kts 120°
2026-05-05 19:43 32.42451 34.44231 10217 ft 325 kts 120°
2026-05-05 19:43 32.41361 34.46535 10120 ft 315 kts 119°
2026-05-05 19:43 32.40319 34.48767 10043 ft 305 kts 120°
2026-05-05 19:44 32.39293 34.50945 9802 ft 302 kts 120°
2026-05-05 19:44 32.38270 34.53106 9494 ft 301 kts 120°
2026-05-05 19:44 32.37554 34.54614 9270 ft 294 kts 120°
2026-05-05 19:44 32.36575 34.56669 8970 ft 280 kts 120°
2026-05-05 19:45 32.35577 34.58657 8677 ft 284 kts 127°
2026-05-05 19:45 32.34118 34.60225 8356 ft 285 kts 152°
2026-05-05 19:45 32.32279 34.60884 8003 ft 271 kts 179°
2026-05-05 19:45 32.30460 34.60720 7605 ft 257 kts 191°
2026-05-05 19:46 32.28716 34.60342 7106 ft 253 kts 193°
2026-05-05 19:46 32.26976 34.60135 6611 ft 253 kts 179°
2026-05-05 19:46 32.25276 34.60563 6260 ft 247 kts 165°
2026-05-05 19:46 32.23663 34.61141 5881 ft 239 kts 166°
2026-05-05 19:47 32.22086 34.61681 5528 ft 234 kts 166°
2026-05-05 19:47 32.20531 34.62218 5186 ft 230 kts 166°
2026-05-05 19:47 32.19006 34.62747 4930 ft 227 kts 166°
2026-05-05 19:47 32.17504 34.63270 4678 ft 223 kts 166°
2026-05-05 19:48 32.16017 34.63789 4438 ft 223 kts 166°
2026-05-05 19:48 32.14531 34.64307 4237 ft 222 kts 166°
2026-05-05 19:48 32.13091 34.64979 4028 ft 225 kts 149°
2026-05-05 19:48 32.11977 34.66254 3842 ft 220 kts 127°
2026-05-05 19:49 32.11186 34.67741 3755 ft 211 kts 120°
2026-05-05 19:49 32.10694 34.68740 3595 ft 215 kts 120°
2026-05-05 19:49 32.09682 34.70740 3211 ft 209 kts 120°
2026-05-05 19:49 32.08936 34.72191 2934 ft 205 kts 121°
2026-05-05 19:50 32.08201 34.73615 2665 ft 202 kts 121°
2026-05-05 19:50 32.07473 34.75021 2397 ft 199 kts 120°
2026-05-05 19:50 32.06765 34.76386 2151 ft 193 kts 120°
2026-05-05 19:50 32.06070 34.77725 1884 ft 187 kts 120°
2026-05-05 19:51 32.05411 34.78995 1660 ft 177 kts 120°
2026-05-05 19:51 32.04783 34.80206 1413 ft 170 kts 120°
2026-05-05 19:51 32.04172 34.81382 1185 ft 166 kts 120°
2026-05-05 19:51 32.03575 34.82534 970 ft 163 kts 120°
2026-05-05 19:52 32.02991 34.83678 754 ft 162 kts 120°
2026-05-05 19:52 32.02405 34.84789 540 ft 161 kts 120°
2026-05-05 19:52 32.01824 34.85911 331 ft 159 kts 120°
2026-05-05 19:52 32.01252 34.87006 147 ft 153 kts 121°
2026-05-05 19:53 32.00774 34.87924 143 ft 100 kts 122°
2026-05-05 19:53 32.00516 34.88420 143 ft 47 kts 126°
2026-05-05 19:53 32.00339 34.88623 143 ft 27 kts 149°
2026-05-05 19:53 32.00219 34.88688 143 ft 14 kts 162°
2026-05-05 19:54 32.00156 34.88705 143 ft 6 kts 181°
2026-05-05 19:54 32.00104 34.88671 143 ft 11 kts 247°
2026-05-05 19:54 32.00119 34.88597 143 ft 9 kts 301°
2026-05-05 19:54 32.00163 34.88513 143 ft 16 kts 303°
2026-05-05 19:55 32.00221 34.88404 143 ft 15 kts 303°
2026-05-05 19:55 32.00275 34.88300 143 ft 14 kts 303°
2026-05-05 19:55 32.00325 34.88202 143 ft 13 kts 304°
2026-05-05 19:55 32.00373 34.88112 143 ft 13 kts 302°
2026-05-05 19:56 32.00418 34.88024 143 ft 12 kts 301°
2026-05-05 19:56 32.00446 34.87970 143 ft 4 kts 301°
2026-05-05 19:56 32.00448 34.87967 143 ft 0 kts 301°
2026-05-05 19:56 32.00448 34.87966 143 ft 0 kts 301°
2026-05-05 19:57 32.00449 34.87964 143 ft 2 kts 301°
2026-05-05 19:57 32.00425 34.87901 143 ft 9 kts 213°
2026-05-05 19:57 32.00374 34.87864 143 ft 9 kts 211°
2026-05-05 19:58 32.00324 34.87828 143 ft 8 kts 212°
2026-05-05 19:58 32.00276 34.87793 143 ft 8 kts 212°
2026-05-05 19:58 32.00229 34.87778 143 ft 7 kts 146°
2026-05-05 19:58 32.00201 34.87821 143 ft 6 kts 121°
2026-05-05 19:59 32.00191 34.87841 143 ft 1 kts 122°
2026-05-05 19:59 32.00188 34.87846 143 ft 1 kts 121°
2026-05-05 19:59 32.00188 34.87848 143 ft 0 kts 121°